LEMUR 2 MARACHE-FRAN

导读

LEMUR 2 MARACHE-FRAN是低轨多用途接收器“狐猴-2”(Lemur-2)卫星星座中的一颗3U立方星纳卫星,该星座由美国塔尖公司研发,计划维持最多175颗在轨卫星。 这颗卫星定于2025年3月15日发射,发射国家暂未公布,运行在400-600公里近地轨道,主要承担无线电掩星探测和船舶跟踪任务。

基本信息
目录编号:
63262
目录名称:
LEMUR 2 MARACHE-FRAN
国际标识:
2025-052BE
轨道中心:
EARTH
卫星名称:
LEMUR 2 MARACHE-FRAN
卫星全名:
LEMUR 2 MARACHE-FRAN
卫星状态:
在轨 (已飞行538 天)
发射日期:
2025-03-15 UTC
国别 :
美国 (US)
星等 :
--
轨道信息
数据来源 国际轨道数据
星历时间: 2026-09-04T19:56:08+0800
9小时前
查看轨道信息
半长轴: 6942.953km
偏心率: 0.0010945
轨道倾角: 97.668°
近地点辐角 90.006°
升交点赤经 140.139°
平近点角 270.242°
近地点: 557.216km
远地点: 572.416km
周期: 95.957分钟
每日圈数: 15.006745
详细信息
使用方式:
暂无
2D轨道图
3D轨道图
轨道高度分析图
轨道倾角分析图
轨道综合分析图
查看轨道综合分析图
交会数据列表
事件ID 空间交会对象 最接近时刻(TCA) 交会距离 交会风险概率(CRP) 交会风险指数(CRI) 操作
CDM_260905-161100-133506-326223
2026-09-05T
16:11:26+0000
1.782 km
极远距离
3.368136E-6 低风险 0.46
CDM_260905-032505-542506-326222
2026-09-05T
03:25:25+0000
2.559 km
极远距离
1.665964E-6 低风险 0.39
CDM_260906-212105-595206-326221
2026-09-06T
21:21:38+0000
2.567 km
极远距离
8.800953E-7 极低风险 0.34